Regional Weather Roundup
Issued by NWS

Home | Current Version | Previous Version | Text Only | Print | Product List | Glossary On
Versions: 1 2 3 4 5 6 7 8 9 10 11 12 13 14 15 16 17 18 19 20 21 22 23 24 25 26 27 28 29 30 31 32 33 34 35 36 37 38 39 40 41 42 43 44 45 46 47 48 49 50
000
ASUS45 KREV 020410
RWRNV
NEVADA REGIONAL WEATHER ROUNDUP
NATIONAL WEATHER SERVICE RENO NV
900 PM PDT SAT AUG 01 2015

NOTE: "FAIR" INDICATES FEW OR NO CLOUDS BELOW 12,000 FEET WITH NO
SIGNIFICANT WEATHER AND/OR OBSTRUCTIONS TO VISIBILITY.

NVZ001-003-004-020500-
WESTERN NEVADA

CITY           SKY/WX    TMP DP  RH WIND       PRES   REMARKS
RENO           CLOUDY    85  47  26 SE8       30.06R
CARSON CITY    FAIR      81  46  30 CALM      30.10R
MINDEN         FAIR      75  45  33 S7        30.11R
SLIDE MTN        N/A     59  46  63 W2          N/A
PYRAMID LAKE     N/A     91 N/A N/A S7          N/A
FALLON         CLOUDY    80  49  33 S26G38    30.02R
LOVELOCK       CLOUDY    87  44  22 SW12      29.97S
HAWTHORNE      CLEAR     72  57  60 SE28      30.16F
$$

NVZ002-CAZ072-073-020500-
NORTHERN AND CENTRAL SIERRA

CITY           SKY/WX    TMP DP  RH WIND       PRES   REMARKS
S. LAKE TAHOE  CLOUDY    70  51  51 CALM      30.22R
TRUCKEE        MOCLDY    68  52  56 SW3       30.20R
SQUAW VLY 8000   N/A     63  46  55 W6          N/A
SUSANVILLE     PTCLDY    73  54  49 W17G23    30.06R
BLUE CANYON    MOCLDY    70  49  47 SW5       30.18R
MAMMOTH LAKES  FAIR      57  50  77 W13G20    30.43R
BRIDGEPORT     FAIR      64  42  44 NE13G21   30.32R
$$

NVZ030-031-036-020500-
NORTHERN NEVADA

CITY           SKY/WX    TMP DP  RH WIND       PRES   REMARKS
ELKO           MOCLDY    80  27  14 E5        30.05R
WINNEMUCCA     CLOUDY    84  26  12 SW8       29.98R
WENDOVER       MOCLDY    81  30  16 W6        30.01S
$$

NVZ035-037-020500-
CENTRAL NEVADA

CITY           SKY/WX    TMP DP  RH WIND       PRES   REMARKS
ELY            CLOUDY    73  38  27 S9        30.19R
EUREKA           N/A     75  39  27 SW6       30.17R
$$

NVZ013-014-020500-
SOUTH CENTRAL NEVADA

CITY           SKY/WX    TMP DP  RH WIND       PRES   REMARKS
TONOPAH        CLOUDY    64  54  69 NW7       30.25R
$$

NVZ017-020-022-020500-
SOUTHERN NEVADA

CITY           SKY/WX    TMP DP  RH WIND       PRES   REMARKS
LAS VEGAS      CLOUDY    87  52  29 NW10      29.89R
N. LAS VEGAS   CLOUDY    81  58  45 N13G24    29.92R
NELLIS AFB     CLOUDY    86  59  39 NW6       29.90R
HENDERSON      NOT AVBL
MERCURY        CLOUDY    77  55  46 E10       30.04S
$$


USA.gov is the U.S. government's official web portal to all federal, state and local government web resources and services.